EZY67DX EGCC-LGRP

Flight info

Callsign EZY67DX
Flight time N/A
Altitude 35000
Route DESIG L603 DOLAS DCT NAVPI DCT DOJOH DCT DODEN DCT NEGIX DCT DINKU M867 XERUM DCT BAVAX DCT RADIZ DCT DOL DCT MONID DCT NAVSU DCT EMKES DCT XELMI DCT AKIKA DCT ENFAR DCT PEP DCT TALAS UN130 MES UN139 LURUS UL995 CODIC
Aircraft A320/M-SDE2E3FGHIJ1RWXYZ/LB1

Departure

Time N/A
Airport Manchester Airport (EGCC)

Arrival

Time 2026-04-28 20:31
Airport Rhodes International Airport "Diagoras" (LGRP)
Time Latitude Longitude Altitude Speed Heading
2026-04-28 19:44 39.76938 23.83241 35109 ft 467 kts 132°
2026-04-28 19:44 39.72621 23.89556 35113 ft 467 kts 132°
2026-04-28 19:45 39.68295 23.95849 35113 ft 467 kts 132°
2026-04-28 19:45 39.63959 24.02134 35115 ft 467 kts 132°
2026-04-28 19:46 39.59626 24.08411 35115 ft 467 kts 132°
2026-04-28 19:46 39.55300 24.14689 35119 ft 467 kts 132°
2026-04-28 19:47 39.50971 24.20961 35120 ft 467 kts 132°
2026-04-28 19:47 39.46636 24.27213 35122 ft 467 kts 132°
2026-04-28 19:48 39.42321 24.33414 35119 ft 467 kts 132°
2026-04-28 19:48 39.37978 24.39646 35117 ft 467 kts 132°
2026-04-28 19:49 39.33636 24.45884 35126 ft 467 kts 132°
2026-04-28 19:49 39.29283 24.52104 35118 ft 467 kts 132°
2026-04-28 19:50 39.22751 24.61413 35113 ft 467 kts 132°
2026-04-28 19:51 39.18394 24.67610 35113 ft 467 kts 132°
2026-04-28 19:51 39.14040 24.73815 35102 ft 467 kts 132°
2026-04-28 19:52 39.09671 24.79997 35106 ft 467 kts 132°
2026-04-28 19:52 39.05295 24.86170 35102 ft 467 kts 132°
2026-04-28 19:53 39.00925 24.92337 35115 ft 467 kts 132°
2026-04-28 19:53 38.96558 24.98505 35107 ft 466 kts 132°
2026-04-28 19:54 38.92183 25.04663 35102 ft 466 kts 132°
2026-04-28 19:54 38.87802 25.10806 35099 ft 466 kts 132°
2026-04-28 19:55 38.83419 25.16951 35094 ft 467 kts 132°
2026-04-28 19:55 38.79063 25.23042 35087 ft 467 kts 132°
2026-04-28 19:56 38.74672 25.29169 35089 ft 467 kts 132°
2026-04-28 19:56 38.70276 25.35291 35080 ft 467 kts 132°
2026-04-28 19:57 38.65876 25.41403 35081 ft 467 kts 132°
2026-04-28 19:57 38.61472 25.47503 35072 ft 467 kts 132°
2026-04-28 19:58 38.57069 25.53600 35070 ft 466 kts 132°
2026-04-28 19:58 38.52669 25.59688 35068 ft 466 kts 132°
2026-04-28 19:59 38.48263 25.65757 35069 ft 466 kts 132°
2026-04-28 19:59 38.43859 25.71822 35063 ft 466 kts 132°
2026-04-28 20:00 38.39457 25.77869 35057 ft 465 kts 132°
2026-04-28 20:00 38.35045 25.83913 35051 ft 465 kts 132°
2026-04-28 20:01 38.30635 25.89953 35048 ft 466 kts 132°
2026-04-28 20:01 38.26226 25.95985 35043 ft 466 kts 132°
2026-04-28 20:02 38.21805 26.02014 35045 ft 466 kts 132°
2026-04-28 20:02 38.17377 26.08034 35045 ft 466 kts 132°
2026-04-28 20:03 38.12950 26.14052 35044 ft 466 kts 132°
2026-04-28 20:03 38.08515 26.20064 35040 ft 466 kts 132°
2026-04-28 20:04 38.04102 26.26030 35041 ft 467 kts 132°
2026-04-28 20:04 37.99657 26.32028 35038 ft 467 kts 132°
2026-04-28 20:05 37.95206 26.38031 35039 ft 467 kts 132°
2026-04-28 20:05 37.90755 26.44027 35041 ft 467 kts 132°
2026-04-28 20:06 37.86298 26.50013 35040 ft 468 kts 132°
2026-04-28 20:06 37.81826 26.55993 35034 ft 468 kts 132°
2026-04-28 20:06 37.79594 26.58982 34872 ft 466 kts 132°
2026-04-28 20:07 37.77383 26.61944 34628 ft 461 kts 132°
2026-04-28 20:07 37.75896 26.63931 34467 ft 459 kts 132°
2026-04-28 20:07 37.73002 26.67791 34151 ft 455 kts 132°
2026-04-28 20:07 37.70828 26.70684 33876 ft 452 kts 132°
2026-04-28 20:08 37.68670 26.73553 33337 ft 449 kts 131°
2026-04-28 20:08 37.66528 26.76406 32801 ft 447 kts 131°
2026-04-28 20:08 37.64395 26.79246 32272 ft 444 kts 131°
2026-04-28 20:08 37.62273 26.82063 31749 ft 442 kts 131°
2026-04-28 20:09 37.60159 26.84872 31236 ft 440 kts 131°
2026-04-28 20:09 37.58057 26.87659 30712 ft 438 kts 131°
2026-04-28 20:09 37.55967 26.90431 30213 ft 436 kts 131°
2026-04-28 20:09 37.53884 26.93195 29660 ft 433 kts 131°
2026-04-28 20:10 37.51819 26.95930 29174 ft 428 kts 131°
2026-04-28 20:10 37.49776 26.98629 28699 ft 424 kts 131°
2026-04-28 20:10 37.47748 27.01302 28237 ft 419 kts 131°
2026-04-28 20:10 37.45745 27.03941 27770 ft 415 kts 131°
2026-04-28 20:11 37.43761 27.06556 27308 ft 411 kts 131°
2026-04-28 20:11 37.41793 27.09149 26841 ft 408 kts 131°
2026-04-28 20:11 37.39865 27.11684 26377 ft 405 kts 131°
2026-04-28 20:11 37.37922 27.14236 25901 ft 402 kts 131°
2026-04-28 20:12 37.35994 27.16773 25430 ft 400 kts 131°
2026-04-28 20:12 37.34079 27.19292 24940 ft 398 kts 131°
2026-04-28 20:12 37.32168 27.21805 24444 ft 397 kts 131°
2026-04-28 20:12 37.30881 27.23497 24110 ft 396 kts 131°
2026-04-28 20:13 37.28358 27.26808 23426 ft 396 kts 131°
2026-04-28 20:13 37.26458 27.29295 22885 ft 393 kts 131°
2026-04-28 20:13 37.24567 27.31762 22401 ft 391 kts 131°
2026-04-28 20:13 37.22687 27.34213 21923 ft 389 kts 131°
2026-04-28 20:14 37.20820 27.36647 21444 ft 386 kts 131°
2026-04-28 20:14 37.18961 27.39073 20970 ft 384 kts 132°
2026-04-28 20:14 37.17115 27.41483 20498 ft 383 kts 132°
2026-04-28 20:14 37.15279 27.43878 20101 ft 379 kts 132°
2026-04-28 20:15 37.13450 27.46252 19699 ft 376 kts 132°
2026-04-28 20:15 37.11633 27.48613 19236 ft 375 kts 132°
2026-04-28 20:15 37.09837 27.50947 18894 ft 371 kts 132°
2026-04-28 20:15 37.08059 27.53264 18322 ft 367 kts 132°
2026-04-28 20:16 37.06302 27.55553 17719 ft 361 kts 133°
2026-04-28 20:16 37.04582 27.57785 17299 ft 350 kts 133°
2026-04-28 20:16 37.02911 27.59943 16881 ft 343 kts 133°
2026-04-28 20:16 37.01255 27.62087 16483 ft 342 kts 133°
2026-04-28 20:17 36.99606 27.64221 16070 ft 341 kts 133°
2026-04-28 20:17 36.98517 27.65632 15810 ft 341 kts 134°
2026-04-28 20:17 36.96871 27.67766 15411 ft 340 kts 134°
2026-04-28 20:17 36.95226 27.69892 15009 ft 340 kts 134°
2026-04-28 20:18 36.93047 27.72701 14478 ft 340 kts 134°
2026-04-28 20:18 36.91936 27.74132 14214 ft 339 kts 134°
2026-04-28 20:18 36.89758 27.76935 13657 ft 339 kts 135°
2026-04-28 20:18 36.88117 27.79046 13227 ft 338 kts 135°
2026-04-28 20:19 36.87012 27.80468 12953 ft 337 kts 135°
2026-04-28 20:19 36.85385 27.82561 12546 ft 335 kts 135°
2026-04-28 20:19 36.83764 27.84645 12107 ft 334 kts 135°
2026-04-28 20:19 36.82140 27.86733 11582 ft 336 kts 134°
2026-04-28 20:20 36.80504 27.88837 11036 ft 339 kts 134°
2026-04-28 20:20 36.78860 27.90950 10500 ft 340 kts 134°
2026-04-28 20:20 36.77212 27.93067 10062 ft 338 kts 134°
2026-04-28 20:20 36.75593 27.95146 9859 ft 329 kts 134°
2026-04-28 20:21 36.74033 27.97146 9721 ft 313 kts 134°
2026-04-28 20:21 36.72558 27.99036 9349 ft 299 kts 134°
2026-04-28 20:21 36.71135 28.00853 8793 ft 294 kts 134°
2026-04-28 20:21 36.69728 28.02649 8349 ft 285 kts 134°
2026-04-28 20:22 36.68348 28.04408 7949 ft 284 kts 134°
2026-04-28 20:22 36.67016 28.06218 7539 ft 284 kts 124°
2026-04-28 20:22 36.66209 28.08449 7123 ft 283 kts 107°
2026-04-28 20:22 36.65650 28.10798 6730 ft 283 kts 105°
2026-04-28 20:23 36.65124 28.13126 6537 ft 274 kts 105°
2026-04-28 20:23 36.64782 28.14649 6450 ft 267 kts 105°
2026-04-28 20:23 36.64581 28.15422 6403 ft 262 kts 113°
2026-04-28 20:23 36.63679 28.17336 6227 ft 253 kts 124°
2026-04-28 20:24 36.62672 28.19118 5898 ft 251 kts 125°
2026-04-28 20:24 36.61650 28.20876 5615 ft 248 kts 128°
2026-04-28 20:24 36.60403 28.22291 5446 ft 241 kts 143°
2026-04-28 20:24 36.59035 28.23487 5167 ft 240 kts 145°
2026-04-28 20:25 36.57658 28.24655 4879 ft 239 kts 146°
2026-04-28 20:25 36.56284 28.25816 4582 ft 238 kts 146°
2026-04-28 20:25 36.54919 28.26969 4329 ft 235 kts 146°
2026-04-28 20:25 36.53589 28.28089 4211 ft 227 kts 146°
2026-04-28 20:26 36.52285 28.29137 4078 ft 220 kts 153°
2026-04-28 20:26 36.50887 28.29863 3877 ft 217 kts 159°
2026-04-28 20:26 36.49460 28.30460 3632 ft 216 kts 168°
2026-04-28 20:26 36.47975 28.30374 3365 ft 217 kts 200°
2026-04-28 20:27 36.46770 28.29360 3161 ft 207 kts 231°
2026-04-28 20:27 36.46126 28.27817 2913 ft 198 kts 251°
2026-04-28 20:27 36.45666 28.26222 2662 ft 194 kts 252°
2026-04-28 20:27 36.45276 28.24875 2461 ft 185 kts 252°
2026-04-28 20:28 36.44854 28.23424 2208 ft 173 kts 253°
2026-04-28 20:28 36.44460 28.22070 1993 ft 162 kts 253°
2026-04-28 20:28 36.44087 28.20790 1803 ft 152 kts 253°
2026-04-28 20:28 36.43733 28.19573 1598 ft 147 kts 254°
2026-04-28 20:29 36.43389 28.18394 1405 ft 144 kts 254°
2026-04-28 20:29 36.43051 28.17234 1205 ft 142 kts 253°
2026-04-28 20:29 36.42716 28.16084 1019 ft 141 kts 253°
2026-04-28 20:29 36.42384 28.14948 836 ft 139 kts 252°
2026-04-28 20:30 36.42060 28.13829 640 ft 136 kts 251°
2026-04-28 20:30 36.41748 28.12731 458 ft 134 kts 249°
2026-04-28 20:30 36.41427 28.11647 273 ft 134 kts 250°
2026-04-28 20:30 36.41106 28.10557 117 ft 134 kts 249°
2026-04-28 20:31 36.40806 28.09507 31 ft 117 kts 246°
2026-04-28 20:31 36.40583 28.08787 26 ft 72 kts 250°
2026-04-28 20:31 36.40453 28.08349 28 ft 46 kts 250°
2026-04-28 20:31 36.40366 28.08060 30 ft 28 kts 239°
2026-04-28 20:32 36.40251 28.07929 26 ft 22 kts 220°
2026-04-28 20:32 36.40159 28.07860 28 ft 10 kts 167°
2026-04-28 20:32 36.40151 28.07934 26 ft 12 kts 72°
2026-04-28 20:32 36.40184 28.08048 27 ft 17 kts 69°
2026-04-28 20:33 36.40231 28.08206 27 ft 22 kts 70°
2026-04-28 20:33 36.40288 28.08399 28 ft 27 kts 70°
2026-04-28 20:33 36.40352 28.08616 28 ft 25 kts 69°
2026-04-28 20:33 36.40395 28.08758 29 ft 15 kts 71°
2026-04-28 20:34 36.40397 28.08876 29 ft 13 kts 93°
2026-04-28 20:34 36.40401 28.09003 29 ft 17 kts 76°
2026-04-28 20:34 36.40440 28.09138 29 ft 15 kts 70°
2026-04-28 20:34 36.40469 28.09237 29 ft 10 kts 70°
2026-04-28 20:35 36.40454 28.09276 29 ft 5 kts 152°
2026-04-28 20:35 36.40427 28.09288 29 ft 3 kts 159°
2026-04-28 20:35 36.40419 28.09292 29 ft 0 kts 159°